Location: Hurstbourne Priors
(51.2000°N, 1.3667°W)
Time: 23:01:21
(UTC+00:00)

Altair - Pass Details

Date: 16 April 2021
Orbit: 1501 x 1683 km, 47.2° (Epoch: 13 May)

Event Time Altitude Azimuth Distance (km) Brightness Sun altitude
Rises 10:45:11 0° 274° (W) 4,778 9.9 45.9°
Reaches altitude 10° 10:48:20 10° 272° (W) 3,768 9.4 46.2°
Maximum altitude 10:57:41 65° 193° (SSW) 1,655 9.1 46.8°
Drops below altitude 10° 11:06:45 10° 115° (ESE) 3,658 10.1 47.4°
Sets 11:09:45 0° 112° (ESE) 4,631 10.4 47.5°
